Luke AFB, AZ

7:07 PM MST on December 03, 2016 (GMT -0700)
Luke Air Force Base

Weather History for KLUF - April, 2013

Change the Weather History Date:

Sunday, April 7, 2013

  Actual Average Record
Temperature  
Mean Temperature 72 °F -  
Max Temperature 88 °F 85 °F 105 °F (1989)
Min Temperature 57 °F 49 °F 34 °F (1922)
Cooling Degree Days 8    
Growing Degree Days 22 (Base 50)    
Moisture  
Dew Point 38 °F    
Average Humidity 29    
Maximum Humidity 49    
Minimum Humidity 15    
Precipitation  
Precipitation 0.00 in - - ()
Sea Level Pressure  
Sea Level Pressure 29.75 in    
Wind  
Wind Speed 6 mph (SW)    
Max Wind Speed 15 mph    
Max Gust Speed -    
Visibility 10 miles    
Events      
Averages and records for this station are not official NWS values.
T = Trace of Precipitation, MM = Missing Value Source: NWS Daily Summary

Daily Weather History Graph

Daily Weather History Graph

Search for Another Location

Airport or City:

Trip Planner

Search our weather history database for the weather conditions in past years. The results will help you decide how hot, cold, wet, or windy it might be!

Date:

Astronomy

Apr. 07, 2013 Rise Set
Actual Time 6:08 AM MST 6:54 PM MST
Civil Twilight 5:43 AM MST 7:20 PM MST
Nautical Twilight 5:13 AM MST 7:49 PM MST
Astronomical Twilight 4:43 AM MST 8:20 PM MST
Moon 4:21 AM MST (4/7) 4:36 PM MST (4/7)
Length of Visible Light 13h 36m
Length of Day
12h 45m
Waning Crescent, 7% of the Moon is Illuminated
Apr 7
Waning Crescent
Apr 10
New
Apr 18
First Quarter
Apr 25
Full
May 2
Last Quarter

Hourly Weather History & Observations

Time (MST) Temp. Dew Point Humidity Pressure Visibility Wind Dir Wind Speed Gust Speed Precip Events Conditions
12:58 AM 66.2 °F 41.4 °F 40% 29.79 in 10.0 mi East 2.3 mph - N/A   Clear
1:58 AM 64.2 °F 38.1 °F 38% 29.77 in 10.0 mi NNE 5.8 mph - N/A   Clear
2:58 AM 61.2 °F 38.3 °F 43% 29.78 in 10.0 mi NNW 8.1 mph - N/A   Clear
3:58 AM 62.4 °F 37.4 °F 40% 29.77 in 10.0 mi North 2.3 mph - N/A   Clear
4:58 AM 58.3 °F 39.0 °F 49% 29.78 in 10.0 mi NNW 4.6 mph - N/A   Clear
5:58 AM 57.2 °F 37.2 °F 47% 29.81 in 10.0 mi NNW 5.8 mph - N/A   Clear
6:58 AM 58.6 °F 39.2 °F 48% 29.82 in 10.0 mi North 4.6 mph - N/A   Clear
7:58 AM 65.1 °F 37.6 °F 36% 29.84 in 10.0 mi NE 3.5 mph - N/A   Clear
8:58 AM 68.2 °F 37.8 °F 33% 29.85 in 10.0 mi Calm Calm - N/A   Clear
9:58 AM 73.2 °F 37.8 °F 28% 29.84 in 10.0 mi South 2.3 mph - N/A   Clear
10:58 AM 77.7 °F 39.6 °F 25% 29.83 in 10.0 mi SW 5.8 mph - N/A   Clear
11:58 AM 80.8 °F 39.6 °F 23% 29.81 in 10.0 mi Variable 4.6 mph - N/A   Clear
12:58 PM 83.3 °F 37.2 °F 19% 29.77 in 10.0 mi South 5.8 mph - N/A   Partly Cloudy
1:58 PM 85.8 °F 37.2 °F 18% 29.74 in 10.0 mi SSW 9.2 mph - N/A   Partly Cloudy
2:12 PM 87.8 °F 35.6 °F 16% 29.76 in 10.0 mi South 12.7 mph - N/A   Clear
2:58 PM 88.7 °F 34.5 °F 15% 29.72 in 10.0 mi SW 11.5 mph - N/A   Clear
3:58 PM 87.8 °F 35.2 °F 15% 29.70 in 10.0 mi SW 10.4 mph - N/A   Clear
4:58 PM 87.3 °F 34.9 °F 15% 29.68 in 10.0 mi WSW 11.5 mph - N/A   Clear
5:58 PM 86.0 °F 33.8 °F 15% 29.68 in 10.0 mi SW 15.0 mph - N/A   Clear
6:58 PM 83.3 °F 35.1 °F 18% 29.65 in 10.0 mi SSW 8.1 mph - N/A   Clear
7:58 PM 79.5 °F 39.2 °F 24% 29.65 in 10.0 mi SW 3.5 mph - N/A   Clear
8:58 PM 78.6 °F 39.6 °F 25% 29.65 in 10.0 mi SSW 5.8 mph - N/A   Clear
9:58 PM 74.1 °F 39.6 °F 29% 29.65 in 10.0 mi SW 5.8 mph - N/A   Clear
10:58 PM 73.6 °F 39.4 °F 29% 29.65 in 10.0 mi SW 12.7 mph - N/A   Clear
11:58 PM 73.9 °F 41.2 °F 31% 29.65 in 10.0 mi SSW 8.1 mph - N/A   Clear